Location: Unspecified
(0.0000°N, 0.0000°E)
Time: 01:15:53
(UTC+00:00)

Traac - Pass Details

Date: 16 December 2025
Orbit: 951 x 1102 km, 32.4° (Epoch: 19 January)

Event Time Altitude Azimuth Distance (km) Brightness Sun altitude
Rises 20:07:36 0° 281° (WNW) 3,614 11.7 -29.9°
Reaches altitude 10° 20:12:31 10° 314° (NW) 2,658 10.5 -31.0°
Maximum altitude 20:14:26 11° 332° (NNW) 2,559 10.2 -31.4°
Enters shadow 20:14:30 11° 333° (NNW) 2,559 10.2 -31.5°
